Regional Weather Roundup
Issued by NWS

Home | Current Version | Previous Version | Graphics & Text | Print | Product List | Glossary On
Versions: 1 2 3 4 5 6 7 8 9 10 11 12 13 14 15 16 17 18 19 20 21 22 23 24 25 26 27 28 29 30 31 32 33 34 35 36 37 38 39 40 41 42 43 44 45 46 47 48 49 50
000
ASUS43 KLOT 291400
RWRIL

ILLINOIS REGIONAL WEATHER ROUNDUP
NATIONAL WEATHER SERVICE CHICAGO/ROMEOVILLE IL
800 AM CST THU JAN 29 2015

NOTE: "FAIR" INDICATES FEW OR NO CLOUDS BELOW 12,000 FEET WITH NO
SIGNIFICANT WEATHER AND/OR OBSTRUCTIONS TO VISIBILITY.

* THESE STATIONS ARE NOT UNDER NWS QUALITY CONTROL. THEY ALSO MAY NOT
  REPORT WEATHER SUCH AS PRECIPITATION OR FOG.

ILZ001-002-007-009-015-016-024-291500-
NORTHWEST ILLINOIS

CITY           SKY/WX    TMP DP  RH WIND       PRES   REMARKS
MOLINE         CLOUDY    35  29  78 NW16G23   29.95R WCI  25
STERLING*      CLOUDY    34  28  80 NW17G26   29.90R WCI  23
$$

ILZ003-004-008-010-011-017-018-291500-
NORTH CENTRAL ILLINOIS

CITY           SKY/WX    TMP DP  RH WIND       PRES   REMARKS
ROCKFORD       CLOUDY    33  28  81 NW16      29.88R HAZE    WCI  23
$$

ILZ005-006-012>014-019>023-291500-
NORTHEAST ILLINOIS

CITY           SKY/WX    TMP DP  RH WIND       PRES   REMARKS
CHICAGO-OHARE  CLOUDY    35  28  75 NW16      29.77R WCI  25
CHICAGO-MIDWAY CLOUDY    37  30  75 NW13      29.77R WCI  29
AURORA         CLOUDY    34  28  79 NW22G29   29.81R HAZE    WCI  22
WAUKEGAN       CLOUDY    33  27  78 NW13G21   29.78R WCI  24
DUPAGE AIRPORT LGT RAIN  34  28  79 NW21G28   29.79R WCI  22
WHEELING       CLOUDY    35  27  72 N16G24    29.79R WCI  25
NORTHERLY ISL    N/A     37  28  70 W12         N/A  WCI  29
$$

LMZ740>746-291500-
SOUTHERN LAKE MICHIGAN

STATION/POSITION SKY/WX   TEMP    WIND        PRES    VSBY  WAVE
                          AIR SEA DIR/SP/G                  HT/PER
                          (F)     (DEG/KT/KT) (MB)    (MI)  (FT/S)
WAUKEGAN HARBOR            34     320/ 15/ 21   N/A
HARRISON CRIB              37     300/ 11/ 13   N/A
BURNHAM HARBOR             36     300/  9/ 10   N/A
CALUMET HARBOR             36     260/  5/  6   N/A
MICHIGAN CITY              37     160/ 10/ 13   N/A
$$

ILZ025>027-034>036-040-047-049-050-058-095>099-291500-
WEST-CENTRAL ILLINOIS

CITY           SKY/WX    TMP DP  RH WIND       PRES   REMARKS
QUINCY         CLOUDY    36  30  79 NW18      30.04R WCI  26
$$

ILZ028>032-037-038-041>044-048-051>054-059>061-291500-
CENTRAL ILLINOIS

CITY           SKY/WX    TMP DP  RH WIND       PRES   REMARKS
DECATUR        CLOUDY    38  32  79 NW23G35   29.90R HAZE    WCI  27
PEORIA         CLOUDY    37  30  75 NW16G26   29.93R HAZE    WCI  28
SPRINGFIELD    CLOUDY    38  32  79 NW17G28   29.95R WCI  28
TAYLORVILLE    NOT AVBL
$$

ILZ033-039-045-046-055>057-062-063-291500-
EAST-CENTRAL ILLINOIS

CITY           SKY/WX    TMP DP  RH WIND       PRES   REMARKS
CHAMPAIGN      CLOUDY    37  33  85 W26       29.83R WCI  25
MATTOON        CLOUDY    38  32  79 W25G36    29.87R WCI  27
$$

ILZ079-100>102-291500-
SOUTHWEST ILLINOIS

CITY           SKY/WX    TMP DP  RH WIND       PRES   REMARKS
ALTON          CLOUDY    39  32  75 NW21G32   30.01R WCI  29
BELLEVILLE     CLOUDY    42  36  79 NW17G29   29.99R
CAHOKIA*       CLOUDY    42  34  73 NW21G32   30.02R
$$

ILZ064>066-069>071-074>076-080>082-084>086-088>090-092>094-291500-
SOUTH-CENTRAL ILLINOIS

CITY           SKY/WX    TMP DP  RH WIND       PRES   REMARKS
CARBONDALE     PTCLDY    50  39  66 NW12      29.96R
MARION         PTCLDY    50  41  71 W12       29.95R
MT. VERNON     CLOUDY    46  36  66 NW8       29.96R
$$

ILZ067-068-072-073-078-083-087-091-291500-
SOUTHEAST ILLINOIS

CITY           SKY/WX    TMP DP  RH WIND       PRES   REMARKS
LAWRENCEVILLE  PTCLDY    47  39  74 W16       29.87R
$$

ABBREVIATIONS USED IN REMARKS
   TC - TEMPERATURE IN CELSIUS
  WCI - WIND CHILL INDEX
   HX - HEAT INDEX
  VSB - VISIBILITY
$$




USA.gov is the U.S. government's official web portal to all federal, state and local government web resources and services.